Station 41004 (LLNR 825) - EDISTO - 41 NM Southeast of Charleston, SC Image indicating link to RSS feed of recent meteorological observations for station 41004


Conditions at 41004 as of
(8:40 am EDT)
1240 GMT on 05/24/2024:
     

Click on the graph icon in the table below to see a time series plot of the last five days of that observation.

5-day plot - Wind Direction Wind Direction (WDIR):WSW ( 240 deg true )
5-day plot - Wind Speed Wind Speed (WSPD): 13.6 kts
5-day plot - Wind Gust Wind Gust (GST): 15.5 kts
5-day plot - Atmospheric Pressure Atmospheric Pressure (PRES):29.97 in
5-day plot - Air Temperature Air Temperature (ATMP): 77.4 °F
5-day plot - Water Temperature Water Temperature (WTMP): 79.7 °F
5-day plot - Dew Point Dew Point (DEWP): 73.6 °F
5-day plot - Heat Index Heat Index (HEAT): 79.0 °F
5-day plot - Wind Speed at 10 Meters Wind Speed at 10 meters (WSPD10M): 13.6 kts
5-day plot - Wind Speed at 20 Meters Wind Speed at 20 meters (WSPD20M): 15.5 kts
5-day plot -  Wind Speed, Wind Gust and Atmospheric Pressure Combined plot of Wind Speed, Gust, and Air Pressure
Supplemental Measurements
Highest 1-minute Wind Speed
Time (EDT)5-day plot - 1-Minute Wind Speed WSPD 5-day plot - 1-Minute Wind Direction WDIR
8:31 am 13.6 kts-
Previous observations
TIME
(EDT)
5-day plot - Wind Direction
WDIR
 
5-day plot - Wind Speed
WSPD
kts
5-day plot - Wind Gust
GST
kts
5-day plot - Wave Height
WVHT
ft
5-day plot - Dominant Wave Period
DPD
sec
5-day plot - Average Wave Period
APD
sec
5-day plot - Mean Wave Direction
MWD
 
5-day plot - Atmospheric Pressure
PRES
in
5-day plot - Pressure Tendency
PTDY
in
5-day plot - Air Temperature
ATMP
°F
5-day plot - Water Temperature
WTMP
°F
5-day plot - Dew Point
DEWP
°F
5-day plot - Salinity
SAL
psu
5-day plot - Visibility
VIS
nmi
5-day plot - Tide (above MLLW)
TIDE
ft
2024-05-24 08:30 amWSW 13.6 15.5----29.97- 77.4 79.7 73.4---
2024-05-24 08:20 amWSW 13.6 15.5 2.3 33.5 SW29.97- 77.2 79.7 73.2---
2024-05-24 08:10 amWSW 13.6 15.5 2.3-3.5 SW29.96- 77.2 79.7 73.6---
2024-05-24 08:00 amWSW 13.6 17.5----29.96+0.01 77.0 79.7 73.8---
2024-05-24 07:50 amWSW 13.6 15.5 2.3 43.6 SW29.96- 77.0 79.7 73.9---
2024-05-24 07:40 amWSW 13.6 15.5----29.96- 77.0 79.7 73.9---
2024-05-24 07:30 amWSW 13.6 15.5----29.96- 77.0 79.9 74.1---
2024-05-24 07:20 amWSW 13.6 17.5 2.3 33.4 SW29.96- 77.2 79.9 74.3---
2024-05-24 07:10 amWSW 13.6 15.5 2.3-3.4 SW29.96- 77.0 79.9 74.1---
2024-05-24 07:00 amWSW 13.6 17.5----29.95-0.02 77.0 79.9 74.1---
2024-05-24 06:50 amWSW 13.6 17.5 2.3 83.6ESE29.96- 77.2 79.9 74.3---
2024-05-24 06:40 amWSW 13.6 17.5----29.95- 77.2 79.9 74.3---
2024-05-24 06:30 amWSW 13.6 15.5----29.95- 77.2 79.9 74.3---
2024-05-24 06:20 amWSW 11.7 15.5 2.0 33.5 SW29.95- 77.2 79.7 74.3---
2024-05-24 06:10 amWSW 11.7 15.5 2.0-3.5 SW29.94- 77.2 79.7 74.3---
2024-05-24 06:00 amWSW 11.7 15.5----29.94-0.03 77.0 79.7 74.1---
2024-05-24 05:50 amWSW 11.7 13.6 2.3 83.7 E29.94- 77.0 79.5 74.3---
2024-05-24 05:40 amWSW 11.7 15.5----29.94- 77.0 79.5 74.3---
2024-05-24 05:30 amWSW 13.6 17.5----29.95- 77.5 79.5 74.7---
2024-05-24 05:20 amWSW 13.6 15.5 2.3 83.7 E29.95- 77.7 79.5 74.3---
2024-05-24 05:10 amWSW 13.6 15.5 2.3-3.7 E29.95- 77.7 79.5 74.1---
2024-05-24 05:00 amWSW 11.7 13.6----29.95-0.02 77.9 79.5 74.1---
2024-05-24 04:50 amWSW 11.7 15.5 2.0 93.7 E29.96- 77.7 79.5 73.9---
2024-05-24 04:40 amWSW 11.7 13.6----29.96- 77.9 79.5 74.3---
2024-05-24 04:30 amWSW 11.7 15.5----29.96- 77.7 79.5 74.3---
2024-05-24 04:20 amWSW 13.6 15.5 2.0 83.8 E29.96- 77.9 79.5 74.8---
2024-05-24 04:10 amWSW 13.6 15.5 2.0-3.8 E29.97- 77.9 79.5 74.8---
2024-05-24 04:00 amWSW 13.6 15.5----29.97-0.02 78.1 79.5 74.8---
2024-05-24 03:50 amWSW 13.6 15.5 2.0 83.9 E29.97- 78.1 79.5 74.5---
2024-05-24 03:40 am SW 11.7 13.6----29.96- 78.1 79.5 74.3---
2024-05-24 03:30 am SW 11.7 13.6----29.96- 77.9 79.5 73.9---
2024-05-24 03:20 am SW 9.7 13.6 2.0 94.0ENE29.96- 78.1 79.5 74.1---
2024-05-24 03:10 am SW 9.7 11.7 2.0-4.0ENE29.96- 78.1 79.5 73.9---
2024-05-24 03:00 am SW 9.7 13.6----29.97-0.02 77.9 79.5 73.8---
2024-05-24 02:50 am SW 11.7 13.6 2.0 94.1 E29.97- 77.9 79.5 73.8---
2024-05-24 02:40 amSSW 9.7 11.7----29.96- 78.1 79.7 73.9---
2024-05-24 02:30 amSSW 9.7 11.7----29.97- 77.9 79.7 73.6---
2024-05-24 02:20 amSSW 9.7 11.7 2.0 84.0 E29.97- 77.9 79.5 73.6---
2024-05-24 02:10 amSSW 9.7 11.7 2.0-4.0 E29.97- 78.1 79.5 73.6---
2024-05-24 02:00 amSSW 9.7 11.7----29.97-0.03 78.1 79.7 73.8---
2024-05-24 01:50 amSSW 9.7 11.7 2.3 94.3 E29.98- 78.1 79.7 73.8---
2024-05-24 01:40 am SW 9.7 11.7----29.98- 78.3 79.7 73.9---
2024-05-24 01:30 am SW 9.7 11.7----29.98- 78.1 79.7 73.6---
2024-05-24 01:20 am SW 9.7 11.7 2.0 93.9 E29.98- 78.3 79.7 73.6---
2024-05-24 01:10 amSSW 9.7 13.6 2.0-3.9 E29.99- 78.3 79.7 73.4---
2024-05-24 01:00 amSSW 11.7 13.6----29.99+0.00 78.3 79.7 73.6---
2024-05-24 12:50 amSSW 11.7 13.6 2.0 94.2 E30.00- 78.4 79.9 73.6---
2024-05-24 12:40 amSSW 9.7 11.7----30.00- 78.6 79.9 73.8---
2024-05-24 12:30 amSSW 9.7 11.7----29.99- 78.4 79.9 73.2---
2024-05-24 12:20 am SW 9.7 11.7 2.0 94.0 E30.00- 78.6 79.9 73.6---
2024-05-24 12:10 amSSW 9.7 11.7 2.0-4.0 E30.00- 78.6 79.9 73.2---
2024-05-24 12:00 amSSW 9.7 11.7----29.99+0.02 78.6 79.9 73.2---
2024-05-23 11:50 pmSSW 9.7 11.7 2.0 94.1 E29.99- 78.6 79.9 73.2---
2024-05-23 11:40 pmSSW 9.7 11.7----29.99- 78.6 79.9 72.9---
2024-05-23 11:30 pmSSW 9.7 11.7----29.99- 78.6 79.9 72.9---
2024-05-23 11:20 pmSSW 9.7 11.7 2.0 94.1 E29.99- 78.8 79.9 73.0---
2024-05-23 11:10 pm SW 9.7 11.7 2.0-4.1 E30.00- 78.6 79.9 72.5---
2024-05-23 11:00 pmSSW 9.7 11.7----30.01+0.02 78.8 79.9 72.5---
2024-05-23 10:50 pmSSW 9.7 11.7 2.0 94.4 E30.01- 78.8 80.1 72.1---
2024-05-23 10:40 pmSSW 9.7 11.7----30.01- 78.8 80.1 72.3---
2024-05-23 10:30 pm S 11.7 13.6----29.99- 78.8 80.1 72.1---
2024-05-23 10:20 pm S 11.7 13.6 2.0 84.3ESE29.99- 78.8 80.1 72.1---
2024-05-23 10:10 pmSSW 11.7 13.6----29.99- 78.8 80.1 72.0---
2024-05-23 10:00 pm S 11.7 13.6----29.98+0.00 78.8 80.1 72.0---
2024-05-23 09:50 pm S 11.7 13.6 1.6 94.6 E29.98- 78.8 80.1 71.4---
2024-05-23 09:40 pm S 11.7 13.6----29.98- 78.8 80.1 71.6---
2024-05-23 09:30 pm S 11.7 13.6----29.97- 78.8 80.2 71.6---
2024-05-23 09:20 pm S 9.7 11.7 1.6 94.6ENE29.97- 78.8 80.1 71.1---
2024-05-23 09:10 pmSSW 9.7 11.7 1.6-4.6ENE29.97- 78.8 80.1 71.2---
2024-05-23 09:00 pmSSW 9.7 11.7----29.97-0.02 78.8 80.2 70.9---
2024-05-23 08:50 pmSSW 11.7 13.6 1.6 95.3ESE29.97- 78.8 80.4 71.1---
2024-05-23 08:40 pmSSW 9.7 11.7----29.98- 78.8 80.4 70.9---
2024-05-23 08:30 pmSSW 9.7 11.7----29.98- 78.8 80.4 70.9---
2024-05-23 08:20 pmSSW 9.7 11.7 1.6 95.9 E29.98- 78.8 80.2 71.1---
2024-05-23 08:10 pmSSW 9.7 11.7 1.6-5.9 E29.98- 78.8 80.2 71.4---
2024-05-23 08:00 pmSSW 9.7 11.7----29.98-0.01 78.8 80.4 71.2---
2024-05-23 07:50 pmSSW 7.8 9.7 2.0 96.1ENE29.98- 78.8 80.4 71.2---
2024-05-23 07:40 pmSSW 9.7 11.7----29.98- 78.8 80.4 71.6---
2024-05-23 07:20 pm S 9.7 11.7 2.0 95.9 E29.98- 78.8 80.6 71.6---
2024-05-23 07:10 pm S 9.7 11.7----29.98- 78.8 80.4 71.6---
2024-05-23 07:00 pm S 9.7 11.7----29.98-0.03 78.8 80.4 71.6---
2024-05-23 06:50 pm S 9.7 11.7 2.0 85.9 E29.98- 78.6 80.4 71.2---
2024-05-23 06:40 pm S 9.7 11.7----29.98- 78.8 80.2 71.2---
2024-05-23 06:30 pm S 7.8 9.7----29.98- 78.8 80.2 71.4---
2024-05-23 06:20 pm S 7.8 11.7 2.0 95.5ENE29.99- 78.8 80.4 70.7---
2024-05-23 06:10 pm S 9.7 9.7 2.0-5.5ENE29.99- 78.8 80.8 71.2---
2024-05-23 06:00 pmSSW 9.7 9.7----29.99-0.04 78.8 80.2 71.1---
2024-05-23 05:50 pm S 9.7 11.7 2.0 105.4 E29.99- 78.8 80.2 70.7---
2024-05-23 05:40 pm S 7.8 9.7----29.99- 78.8 80.6 70.7---
2024-05-23 05:30 pm S 7.8 9.7----29.99- 78.8 80.2 70.2---
2024-05-23 05:20 pm S 7.8 7.8 2.0 96.3 E29.99- 78.8 80.1 70.0---
2024-05-23 05:10 pm S 5.8 7.8 2.0-6.3 E30.00- 78.6 79.9 70.0---
2024-05-23 05:00 pmSSW 5.8 7.8----30.00-0.04 78.6 79.7 70.7---
2024-05-23 04:50 pmSSW 3.9 5.8 2.0 96.1ENE30.00- 78.6 79.9 70.7---
2024-05-23 04:40 pmSSW 3.9 5.8----30.00- 78.6 79.7 70.3---
2024-05-23 04:30 pm SW 3.9 5.8----30.00- 78.4 79.5 70.0---
2024-05-23 04:20 pmSSW 3.9 5.8 2.0 106.0ENE30.01- 78.3 79.7 71.1---
2024-05-23 04:10 pmSSW 3.9 3.9 2.0-6.0ENE30.01- 78.6 79.5 71.6---
2024-05-23 04:00 pmSSW 1.9 3.9----30.01-0.04 78.4 79.7 70.5---
2024-05-23 03:50 pmSSW 1.9 3.9 2.0 106.0ENE30.01- 78.3 79.5 70.9---
2024-05-23 03:40 pmSSW 1.9 3.9----30.01- 78.1 79.5 71.1---
2024-05-23 03:30 pm S 1.9 3.9----30.01- 78.1 79.7 71.6---
2024-05-23 03:20 pm S 1.9 3.9 2.0 85.9 E30.02- 78.1 79.7 71.6---
2024-05-23 03:10 pm SW 1.9 3.9 2.0-5.9 E30.03- 77.9 79.9 71.4---
2024-05-23 03:00 pmWSW 1.9 3.9----30.03-0.03 78.1 79.9 71.6---
2024-05-23 02:50 pmSSW 1.9 3.9 2.0 96.0ENE30.03- 77.5 79.9 71.2---
2024-05-23 02:40 pm S 1.9 3.9----30.03- 77.5 79.5 71.6---
2024-05-23 02:30 pmSSW 3.9 5.8----30.03- 77.5 80.6 71.8---
2024-05-23 02:20 pm SW 1.9 5.8 2.0 95.7ENE30.03- 77.5 80.2 71.6---
2024-05-23 02:10 pm SW 3.9 5.8 2.0-5.7ENE30.04- 77.4 80.2 71.4---
2024-05-23 02:00 pm SW 3.9 3.9----30.04-0.01 77.4 79.3 71.4---
2024-05-23 01:50 pmSSW 1.9 3.9 2.0 95.8 E30.05- 77.4 79.5 71.6---
2024-05-23 01:40 pmSSW 3.9 5.8----30.04- 77.2 79.5 71.4---
2024-05-23 01:30 pm SW 1.9 5.8----30.05- 77.2 79.5 71.2---
2024-05-23 01:20 pm SW 3.9 3.9 2.0 95.9 E30.05- 77.0 79.5 71.2---
2024-05-23 01:10 pm SW 3.9 5.8 2.0-5.9 E30.05- 77.0 79.5 71.4---
2024-05-23 01:00 pmSSW 3.9 5.8----30.05-0.01 76.8 79.3 71.2---
2024-05-23 12:50 pm S 3.9 3.9 2.0 105.8 E30.06- 76.8 79.2 71.2---
2024-05-23 12:40 pm SW 3.9 5.8----30.06- 76.8 79.3 71.2---
2024-05-23 12:30 pmWSW 3.9 5.8----30.06- 76.6 79.2 71.1---
2024-05-23 12:20 pmWSW 1.9 3.9 2.0 96.1 E30.06- 76.6 79.2 71.1---
2024-05-23 12:10 pm W 3.9 5.8 2.0-6.1 E30.06- 76.6 79.2 71.1---
2024-05-23 12:00 pm W 3.9 5.8----30.06+0.00 76.5 79.0 71.1---
2024-05-23 11:50 am W 3.9 3.9 2.0 95.7 E30.06- 76.5 79.3 70.9---
2024-05-23 11:40 am W 3.9 5.8----30.06- 76.3 79.0 70.9---
2024-05-23 11:30 am W 5.8 5.8----30.05- 76.3 79.2 70.7---
2024-05-23 11:20 amWNW 3.9 5.8 2.0 95.7 E30.05- 76.3 79.3 70.7---
2024-05-23 11:10 amWNW 5.8 7.8 2.0-5.7 E30.05- 76.1 79.3 70.3---
2024-05-23 11:00 amWNW 5.8 7.8----30.06+0.01 76.3 79.3 70.5---
2024-05-23 10:50 amWNW 5.8 7.8 2.0 105.5 E30.06- 76.5 79.3 70.7---
2024-05-23 10:40 am W 5.8 7.8----30.05- 76.5 79.3 70.5---
2024-05-23 10:30 amWNW 7.8 9.7----30.06- 76.5 79.3 70.3---
2024-05-23 10:20 amWNW 7.8 9.7 2.0 105.7ENE30.06- 76.5 79.5 70.0---
2024-05-23 10:10 amWNW 7.8 9.7----30.05- 76.5 79.5 70.0---
2024-05-23 10:00 amWNW 7.8 9.7 2.0-5.7ENE30.06+0.04 76.6 79.5 70.2---
2024-05-23 09:50 amWNW 7.8 9.7 2.0 105.4 E30.05- 76.5 79.5 69.3---
2024-05-23 09:40 amWNW 9.7 11.7----30.06- 76.5 79.5 69.3---
2024-05-23 09:30 amWNW 9.7 11.7----30.06- 76.6 79.5 70.5---
2024-05-23 09:20 amWNW 9.7 11.7 2.0 105.9 E30.06- 76.5 79.7 70.7---
2024-05-23 09:10 amWNW 9.7 13.6 2.0-5.9 E30.06- 76.6 79.7 71.1---
2024-05-23 09:00 amWNW 11.7 13.6----30.06+0.05 76.6 79.7 71.1---
2024-05-23 08:50 amWNW 11.7 13.6 2.0 96.2ENE30.06- 76.8 79.7 71.2---

Detailed Wave Summary
for 41004 as of (8:10 am EDT)
1210 GMT on 05/24/2024:

These wave data are displayed in rounded times.

     

Click on the graph icon in the table below to see a time series plot of the last five days of that observation.

5-day plot - Significant Wave Height Significant Wave Height (WVHT): 2.3 ft
5-day plot - Swell Height Swell Height (SwH): 1.0 ft
5-day plot - Swell Period Swell Period (SwP): 7.7 sec
5-day plot - Swell Direction Swell Direction (SwD): E
5-day plot - Wind Wave Height Wind Wave Height (WWH): 2.0 ft
5-day plot - Wind Wave Period Wind Wave Period (WWP): 3.4 sec
5-day plot - Wind Wave Direction Wind Wave Direction (WWD): SW
5-day plot - Average Wave Period Average Wave Period (APD): 3.5 sec
Previous observations
TIME
(EDT)
5-day plot - Wave Height
WVHT
ft
5-day plot - Swell Height
SwH
ft
5-day plot - Swell Period
SwP
sec
5-day plot - Swell Direction
SwD
 
5-day plot - Wind Wave Height
WWH
ft
5-day plot - Wind Wave Period
WWP
sec
5-day plot - Wind Wave Direction
WWD
 
5-day plot - Wave Steepness
STEEPNESS
 
5-day plot - Average Wave Period
APD
sec
2024-05-24 07:40 am 2.3 1.3 9.1 E 2.0 3.6 SW N/A 3.6
2024-05-24 07:10 am 2.3 1.0 10.0ESE 2.0 3.4 SW N/A 3.4
2024-05-24 06:40 am 2.3 1.0 8.3ESE 2.0 3.3 SW N/A 3.6
2024-05-24 06:10 am 2.0 1.0 8.3 E 2.0 3.2 SW N/A 3.5
2024-05-24 05:40 am 2.3 1.3 8.3 E 2.0 3.3 SW N/A 3.7
2024-05-24 05:10 am 2.3 1.3 8.3 E 1.6 3.3 SW N/A 3.7
2024-05-24 04:40 am 2.0 1.3 9.1 E 1.6 3.1 SW N/A 3.7
2024-05-24 04:10 am 2.0 1.3 8.3 E 1.6 3.1 SSW N/A 3.8
2024-05-24 03:40 am 2.0 1.3 8.3 E 1.6 3.1 SW N/A 3.9
2024-05-24 03:10 am 2.0 1.6 9.1ENE 1.3 3.1 SSW N/A 4.0
2024-05-24 02:40 am 2.0 1.6 9.1 E 1.3 3.0 SW N/A 4.1
2024-05-24 02:10 am 2.0 1.6 8.3 E 1.3 3.0 SW N/A 4.0
2024-05-24 01:40 am 2.3 1.6 9.1 E 1.3 2.9 SW N/A 4.3
2024-05-24 01:10 am 2.0 1.3 9.1 E 1.3 5.0 ESE N/A 3.9
2024-05-24 12:40 am 2.0 1.6 9.1 E 1.3 2.7 SW N/A 4.2
2024-05-24 12:10 am 2.0 1.6 9.1 E 1.0 2.6 SW N/A 4.0
2024-05-23 11:40 pm 2.0 1.6 9.1 E 1.3 2.5 SW N/A 4.1
2024-05-23 11:10 pm 2.0 1.6 9.1 E 1.0 2.4 SW N/A 4.1
2024-05-23 10:40 pm 2.0 1.6 9.1 E 1.0 4.3 SE N/A 4.4
2024-05-23 10:10 pm 2.0 1.3 8.3ESE 1.0 4.8 SE N/A 4.3
2024-05-23 09:40 pm 1.6 1.3 9.1 E 1.0 4.8 ESE N/A 4.6
2024-05-23 09:10 pm 1.6 1.6 9.1ENE 1.0 2.2 SW N/A 4.6
2024-05-23 08:40 pm 1.6 1.6 9.1ESE 0.7 2.1 SW N/A 5.3
2024-05-23 08:10 pm 1.6 1.6 9.1 E 0.7 4.3 ESE N/A 5.9
2024-05-23 07:40 pm 2.0 1.6 9.1ENE 0.7 3.7 ESE N/A 6.1
2024-05-23 07:10 pm 2.0 1.6 9.1 E 0.7 4.8 ESE N/A 5.9
2024-05-23 06:40 pm 2.0 1.6 8.3 E 0.7 3.8 ESE N/A 5.9
2024-05-23 06:10 pm 2.0 1.6 9.1ENE 0.7 4.2 E N/A 5.5
2024-05-23 05:40 pm 2.0 1.6 10.0 E 0.7 3.8 E N/A 5.4
2024-05-23 05:10 pm 2.0 2.0 9.1 E 0.7 3.8 E N/A 6.3
2024-05-23 04:40 pm 2.0 2.0 9.1ENE 0.7 2.5 E N/A 6.1
2024-05-23 04:10 pm 2.0 2.0 10.0ENE 0.7 3.3 ESE N/A 6.0
2024-05-23 03:40 pm 2.0 2.0 10.0ENE 0.7 3.7 E N/A 6.0
2024-05-23 03:10 pm 2.0 1.6 8.3 E 0.7 4.0 E N/A 5.9
2024-05-23 02:40 pm 2.0 1.6 9.1ENE 0.7 4.0 E N/A 6.0
2024-05-23 02:10 pm 2.0 1.6 9.1ENE 0.7 2.7 WNW N/A 5.7
2024-05-23 01:40 pm 2.0 2.0 9.1 E 0.7 3.7 E N/A 5.8
2024-05-23 01:10 pm 2.0 2.0 9.1 E 0.7 3.6 ENE N/A 5.9
2024-05-23 12:40 pm 2.0 2.0 10.0 E 0.7 4.0 ESE N/A 5.8
2024-05-23 12:10 pm 2.0 2.0 9.1 E 0.7 3.8 SE N/A 6.1
2024-05-23 11:40 am 2.0 1.6 9.1 E 0.7 4.0 ESE N/A 5.7
2024-05-23 11:10 am 2.0 2.0 9.1 E 0.7 3.8 ESE N/A 5.7
2024-05-23 10:40 am 2.0 2.0 10.0 E 0.7 3.8 E N/A 5.5
2024-05-23 10:10 am 2.0 2.0 10.0ENE 0.7 4.0 ESE N/A 5.7
2024-05-23 09:40 am 2.0 1.6 10.0 E 0.7 4.2 SE N/A 5.4
2024-05-23 09:10 am 2.0 2.0 10.0 E 0.7 3.4 E N/A 5.9

Plot of wave energy versus frequency (and period)